Location: Three Forks Visitor's Center
(58.3672°N, 155.3776°W)
Time: 10:32:20
(UTC-08:00)

Envisat - Visible Passes

Search period start: 22 October 2019 00:00
Search period end: 01 November 2019 00:00
Orbit: 764 x 766 km, 98.1° (Epoch: 22 October)

Date Brightness Start Highest point End Pass type
(mag) Time Alt. Az. Time Alt. Az. Time Alt. Az.
22 Oct 3.1 20:01:53 10° SSE 20:06:59 88° WSW 20:12:07 10° NNW visible
22 Oct 5.7 21:43:04 10° SW 21:46:46 20° W 21:50:28 10° NW visible
23 Oct 6.0 08:02:27 10° NE 08:05:57 18° E 08:09:25 10° SE visible
23 Oct 4.7 21:04:56 10° SSW 21:09:34 34° W 21:14:13 10° NNW visible
24 Oct 3.6 20:27:31 10° S 20:32:33 60° WSW 20:37:37 10° NNW visible
24 Oct 6.1 22:10:18 10° WSW 22:12:41 13° W 22:15:05 10° NW visible
25 Oct 5.5 08:27:29 10° NNE 08:31:48 27° E 08:36:05 10° SSE visible
25 Oct 3.0 19:50:38 10° SSE 19:55:43 79° ENE 20:00:50 10° NNW visible
25 Oct 5.4 21:31:19 10° SW 21:35:21 23° W 21:39:24 10° NW visible
26 Oct 6.1 07:51:32 10° NE 07:54:31 15° E 07:57:29 10° ESE visible
26 Oct 4.4 20:53:25 10° SSW 20:58:13 40° W 21:03:01 10° NNW visible
27 Oct 3.3 20:16:10 10° S 20:21:15 71° WSW 20:26:22 10° NNW visible
27 Oct 5.9 21:58:12 10° WSW 22:01:13 16° W 22:04:17 10° NW visible
28 Oct 5.8 08:16:23 10° NE 08:20:23 23° E 08:24:23 10° SE visible
28 Oct 3.0 19:39:25 10° SSE 19:44:28 68° ENE 19:49:32 10° NNW visible
28 Oct 5.1 21:19:38 10° SSW 21:23:57 27° W 21:28:17 10° NNW visible
29 Oct 6.3 07:40:45 10° NE 07:43:03 13° E 07:45:21 10° ESE visible
29 Oct 4.1 20:41:57 10° S 20:46:52 48° W 20:51:48 10° NNW visible
29 Oct 6.3 22:26:48 10° W 22:27:13 10° WNW 22:27:37 10° WNW visible
30 Oct 5.0 08:41:33 10° NNE 08:46:11 34° E 08:50:47 10° SSE visible
30 Oct 3.1 20:04:51 10° SSE 20:09:57 84° WSW 20:15:06 10° NNW visible
30 Oct 5.7 21:46:16 10° SW 21:49:47 19° W 21:53:20 10° NW visible
31 Oct 5.9 08:05:19 10° NE 08:08:58 19° E 08:12:37 10° SE visible
31 Oct 3.1 19:28:14 10° SE 19:33:13 58° ENE 19:38:14 10° NNW visible
31 Oct 4.8 21:08:01 10° SSW 21:12:34 32° W 21:17:08 10° NNW visible
